Location: Holcomb Observatory and Planetarium
(39.8415°N, 86.1714°W)
Time: 02:47:06
(UTC-04:00)

ISS - Visible Passes

Search period start: 07 July 2015 00:00
Search period end: 17 July 2015 00:00
Orbit: 398 x 402 km, 51.6° (Epoch: 06 July)

Date Brightness Start Highest point End Pass type
(mag) Time Alt. Az. Time Alt. Az. Time Alt. Az.
10 Jul -0.6 05:40:11 10° SSE 05:41:09 11° SE 05:42:15 10° ESE visible
12 Jul -1.7 05:27:17 10° SSW 05:30:01 26° SE 05:32:47 10° ENE visible
13 Jul -0.9 04:35:50 12° SE 04:36:31 13° SE 04:38:09 10° E visible
14 Jul -3.2 05:16:52 20° SW 05:18:54 63° SE 05:22:08 10° ENE visible
15 Jul -2.1 04:25:16 29° SE 04:25:18 29° SE 04:28:12 10° ENE visible
16 Jul -0.4 03:33:36 10° E 03:33:36 10° E 03:33:42 10° E visible
16 Jul -2.9 05:06:09 24° WSW 05:07:51 55° NW 05:11:03 10° NE visible
